Regional Weather Roundup
Issued by NWS Newport/Morehead, NC

Current Version | Previous Version | Text Only | Print | Product List | Glossary On
Versions: 1 2 3 4 5 6 7 8 9 10 11 12 13 14 15 16 17 18 19 20 21 22 23 24 25 26 27 28 29 30 31 32 33 34 35 36 37 38 39 40 41 42 43 44 45 46 47 48 49 50
500
ASUS42 KMHX 191213
RWRMHX
WEATHER ROUNDUP FOR EASTERN NORTH CAROLINA
NATIONAL WEATHER SERVICE NEWPORT/MOREHEAD CITY NC
800 AM EDT TUE SEP 19 2017

NOTE: "FAIR" INDICATES FEW OR NO CLOUDS BELOW 12,000 FEET
WITH NO SIGNIFICANT WEATHER AND/OR OBSTRUCTIONS TO VISIBILITY

NCZ015>017-031-032-045>047-102-103-191300-
NORTH COAST

CITY           SKY/WX    TMP DP  RH WIND       PRES   REMARKS
EDENTON        MOSUNNY   71  67  88 NW14      29.88R
ELIZABETH CITY CLOUDY    73  69  87 NW14      29.84R
KITTY HAWK     NOT AVBL
MANTEO         CLOUDY    70  66  86 NE29G38   29.82R

$$

NCZ045>047-081-094-103-104-191300-
CENTRAL COAST

CITY           SKY/WX    TMP DP  RH WIND       PRES   REMARKS
FRISCO         CLOUDY    72  71  97 MISG      29.81R

$$

NCZ095-097-098-100-101-191300-
SOUTHERN COAST

CITY           SKY/WX    TMP DP  RH WIND       PRES   REMARKS
BEAUFORT       PTSUNNY   70  69  97 NW15G24   29.90R
CEDAR ISLAND   NOT AVBL
JACKSONVILLE   PTSUNNY   69  68  96 NW12      29.93R
PINEY ISLAND     N/A    N/A N/A N/A NW16G28   29.87R
WILMINGTON     SUNNY     69  67  93 NW7       29.95R


$$

NCZ011>013-027>030-043-044-078>080-089-090>093-098-191300-
COASTAL PLAIN

CITY           SKY/WX    TMP DP  RH WIND       PRES   REMARKS
AHOSKIE          N/A     68  66  94 N7        29.93R
CLINTON        CLOUDY    68  67  97 NW3       29.97S
ELIZABETHTOWN  NOT AVBL
GOLDSBORO      PTSUNNY   68  68 100 NW7       29.94R
GREENVILLE     CLOUDY    68  66  94 NW6       29.96R
HAVELOCK       PTSUNNY   71  68  90 NW17G24   29.92R
KENANSVILLE    SUNNY     66  64  94 NW5       29.96R
KINSTON        CLOUDY    70  66  88 NW8       29.95R
NEW BERN       CLOUDY    70  67  90 NW10      29.93R
RICHLANDS      CLOUDY    68  67  96 VRB3      29.95R
ROCKY MOUNT    CLOUDY    68  66  93 N9        29.96R
WASHINGTON     CLOUDY    69  66  90 NW7       29.92S
WHITEVILLE     SUNNY     67  65  95 CALM      29.97S

$$

AMZ130-135-150-152-154-156-158-170-250-252-270-ANZ085-086-088-633-658-670-191300-
MARINE OBSERVATIONS

STATION/POSITION TIME  TEMP    WIND        PRES    WAVE   SWELL
                       AIR SEA DIR/SP/G            HT/PER HT/PER
                 (UTC) (F)     (DEG/KT/KT) (MB)    (FT/S) (FT/S)
CHESAPEAKE LIGHT NOT AVBL
64 E VA BEACH    1150   71 71  350/ 33/ 41 1004.9   16/10  13/10
DUCK             1142   71 75   10/ 31/ 39 1008.5
2 E DUCK         1200      75                N/A    13/13   8/13
OREGON INLET     1142   70 74  350/ 22/ 36 1008.5
13E OREGON INLT  1148      74                N/A    16/13  15/13
HATTERAS CG      1142   72 76  330/ 21/ 25 1009.4
DIAMOND BUOY     1150   73 77  340/ 27/ 33 1008.0   10/11   8/11
CAPE LOOKOUT     1200   71     320/ 16/ 19 1011.7
BEAUFORT LAB     1142   71 74  330/  9/ 13 1011.8
30 SE NEW RVR IN NOT AVBL
30 SE NEW RVR IN NOT AVBL
27 SE WRIGHTSVLE 1108   73 79  330/ 14/ 19 1012.8
5 SE WRIGHTSVLE  1108   71 78  340/ 16/ 23 1013.1
225 S CAPE HAT   1150   80 80  310/ 14/ 16 1011.9   10/10  10/10
41 SE CHARLESTON 1150   78 83  350/  6/ 10 1014.2    6/11   5/11

$$




USA.gov is the U.S. government's official web portal to all federal, state and local government web resources and services.